Regional Weather Roundup
Issued by NWS Northern Indiana

Home | Current Version | Previous Version | Text Only | Print | Product List | Glossary Off
Versions: 1 2 3 4 5 6 7 8 9 10 11 12 13 14 15 16 17 18 19 20 21 22 23 24 25 26 27 28 29 30 31 32 33 34 35 36 37 38 39 40 41 42 43 44 45 46 47 48 49 50

000
ASUS43 KIWX 220010
RWRIWX

KIWX WEATHER ROUNDUP
NATIONAL WEATHER SERVICE NORTHERN INDIANA
800 PM EDT SUN SEP 21 2014

NOTE: "FAIR" INDICATES FEW OR NO CLOUDS BELOW 12,000 FEET WITH NO
SIGNIFICANT WEATHER AND/OR OBSTRUCTIONS TO VISIBILITY.

* THESE STATIONS ARE NOT UNDER NWS QUALITY CONTROL. THEY ALSO MAY NOT
  REPORT WEATHER SUCH AS PRECIPITATION OR FOG.

INZ001>027-220100-
NORTHERN INDIANA

CITY           SKY/WX    TMP DP  RH WIND       PRES   REMARKS
GARY*          CLOUDY    61  52  72 N9G21     30.06R
VALPARAISO     CLOUDY    58  50  75 VRB7      30.05R
6HR MIN TEMP:  58; 6HR MAX TEMP:  65;

MICHIGAN CITY* CLOUDY    55  46  71 N10G17    30.04R
LAPORTE*       CLOUDY    56  49  77 N14       30.04R
6HR MIN TEMP:  56; 6HR MAX TEMP:  62;

KNOX*          CLOUDY    57  49  75 N8        30.03R
6HR MIN TEMP:  57; 6HR MAX TEMP:  69;

SOUTH BEND     MOCLDY    56  48  74 N16G23    30.02R
6HR MIN TEMP:  56; 6HR MAX TEMP:  63; 6HR PCP:  0.05;

GOSHEN         PTCLDY   N/A N/A N/A N13G23    30.00R
                                      6HR PCP:  0.07;

MONTICELLO*    MOCLDY    58  51  79 N5        30.02R
6HR MIN TEMP:  56; 6HR MAX TEMP:  66;

LOGANSPORT*    CLOUDY    57  46  67 N8        30.03R
ROCHESTER*     MOCLDY    59  50  72 NW8       30.02S
WARSAW*        PTCLDY    54  48  82 NW8       30.01R
ANGOLA*        CLOUDY    55  46  71 N9        29.96R
FORT WAYNE     MOCLDY    57  49  74 NW13      29.98R
6HR MIN TEMP:  57; 6HR MAX TEMP:  65; 6HR PCP: TRACE;

HUNTINGTON*    PTCLDY    56  48  76 NW8       30.00R
6HR MIN TEMP:  56; 6HR MAX TEMP:  64; 6HR PCP:  0.01;

PERU/GRISSOM   MOCLDY    58  51  77 N10       30.02R
6HR MIN TEMP:  58; 6HR MAX TEMP:  67; 6HR PCP: TRACE;

MARION*        PTCLDY    57  47  67 NW8       30.01R
6HR MIN TEMP:  40; 6HR MAX TEMP:  90;


$$
INZ028>050-220100-
CENTRAL INDIANA

CITY           SKY/WX    TMP DP  RH WIND       PRES   REMARKS
LAFAYETTE      MOCLDY    59  50  72 NW6       30.02R
6HR MIN TEMP:  58; 6HR MAX TEMP:  67;

KOKOMO*        PTCLDY    57  46  67 N7        30.02R
6HR MIN TEMP:  57; 6HR MAX TEMP:  68;

MUNCIE*        CLEAR     57  48  72 NW13      30.00R
6HR MIN TEMP:  57; 6HR MAX TEMP:  70; 6HR PCP: TRACE;

INDIANAPOLIS   CLOUDY    63  49  60 NW15      30.01R
6HR MIN TEMP:  63; 6HR MAX TEMP:  74;


$$
MIZ043>046-050>051-056>058-064>065-071>073-077>080-220100-
SOUTHWEST LOWER MICHIGAN

CITY           SKY/WX    TMP DP  RH WIND       PRES   REMARKS
BATTLE CREEK   CLOUDY    56  47  71 NW16G22   29.98R
6HR MIN TEMP:  56; 6HR MAX TEMP:  63; 6HR PCP:  0.02;

BENTON HARBOR  CLOUDY    55  47  74 VRB5G18   30.03R
6HR MIN TEMP:  55; 6HR MAX TEMP:  60; 6HR PCP: TRACE;

COLDWATER*     CLOUDY    57  49  73 NW12G18   29.96R
6HR MIN TEMP:  57; 6HR MAX TEMP:  65;

HILLSDALE*     CLOUDY    55  51  86 NW14G25   29.95R
6HR MIN TEMP:  55; 6HR MAX TEMP:  62;

HOLLAND        PTCLDY    54  44  69 VRB7G21   30.03R
6HR MIN TEMP:  53; 6HR MAX TEMP:  62;

GRAND RAPIDS   CLOUDY    52  47  83 NW21G26   30.00R
6HR MIN TEMP:  52; 6HR MAX TEMP:  64; 6HR PCP: TRACE;

KALAMAZOO      MOCLDY    55  47  74 N14       30.00R
6HR MIN TEMP:  55; 6HR MAX TEMP:  64; 6HR PCP: TRACE;

STURGIS*       CLOUDY    55  48  76 NW7       29.98R
THREE RIVERS*  MOCLDY    55  49  80 NW10      29.99R

$$
OHZ001>008-015>018-024>025-220100-
NORTHWEST OHIO

CITY           SKY/WX    TMP DP  RH WIND       PRES   REMARKS
WAUSEON*       CLOUDY    57  48  72 NW16G25   29.92R
DEFIANCE       CLOUDY     1 N/A N/A NW16G24   29.94R WCI -19
                                      6HR PCP: TRACE;

FINDLAY        CLOUDY    60  52  74 NW15G29   29.89R
6HR MIN TEMP:  60; 6HR MAX TEMP:  73; 6HR PCP: TRACE;

TOLEDO EXPRESS CLOUDY    56  53  90 NW13G22   29.90R
6HR MIN TEMP:  56; 6HR MAX TEMP:  66; 6HR PCP:  0.04;

TOLEDO METCALF CLOUDY    58  50  75 NW18      29.89R
6HR MIN TEMP:  58; 6HR MAX TEMP:  67; 6HR PCP: TRACE;

LIMA           CLOUDY    59  50  72 NW16G29   29.93R
6HR MIN TEMP:  59; 6HR MAX TEMP:  71; 6HR PCP:  0.05;


$$
AND FOR LAKE MICHIGAN COASTAL AND OPEN LAKE BUOY OBSERVATIONS

STATION/POSITION TEMP    WIND        PRES    VSBY  WAVE
                 AIR SEA DIR/SP/G                  HT/PER
                 (F)     (DEG/KT/KT) (MB)    (MI)  (FT/S)
CALUMET HARBOR    59     350/ 12/ 17 1016.6R
MICHIGAN CITY     58     350/ 21/ 25   N/A
SAINT JOSEPH      58     350/ 15/ 21 1017.3S
SOUTH LAKE BUOY   56 62  350/ 21/ 25 1017.1R         9/ 8
4 MI NW BRIDGMAN  58 65  360/ 21/ 27   N/A           9/ 8
MICHIGAN CITY     59 64   10/ 17/ 25   N/A           9/ 8

$$
&&



USA.gov is the U.S. government's official web portal to all federal, state and local government web resources and services.